Time,TemperatureF,DewpointF,PressureIn,WindDirection,WindDirectionDegrees,WindSpeedMPH,WindSpeedGustMPH,Humidity,HourlyPrecipIn,Conditions,Clouds,dailyrainin,SoftwareType,DateUTC
2013-10-06 07:30:00,48.8,17.9,30.36,North,349,0.0,1.0,29,0.00,,,0.00,Wunderground v.1.15,2013-10-06 14:30:00,
2013-10-06 07:40:00,49.1,19.7,30.36,NE,44,0.0,0.0,31,0.00,,,0.00,Wunderground v.1.15,2013-10-06 14:40:00,
2013-10-06 07:45:00,50.0,19.7,30.36,West,274,0.0,1.0,30,0.00,,,0.00,Wunderground v.1.15,2013-10-06 14:45:00,
2013-10-06 07:50:00,51.3,21.6,30.36,NW,320,0.0,2.0,31,0.00,,,0.00,Wunderground v.1.15,2013-10-06 14:50:00,
2013-10-06 07:55:00,52.7,22.9,30.36,NW,307,1.0,2.0,31,0.00,,,0.00,Wunderground v.1.15,2013-10-06 14:55:00,
2013-10-06 08:00:00,54.7,21.3,30.36,North,6,1.0,1.0,27,0.00,,,0.00,Wunderground v.1.15,2013-10-06 15:00:00,
2013-10-06 08:05:00,55.8,23.1,30.36,ENE,70,0.0,1.0,28,0.00,,,0.00,Wunderground v.1.15,2013-10-06 15:05:00,
2013-10-06 08:10:00,55.0,22.4,30.36,ESE,109,1.0,1.0,28,0.00,,,0.00,Wunderground v.1.15,2013-10-06 15:10:00,
2013-10-06 08:15:00,55.0,21.6,30.36,SE,141,1.0,1.0,27,0.00,,,0.00,Wunderground v.1.15,2013-10-06 15:15:00,
2013-10-06 08:25:00,54.5,21.2,30.36,ENE,75,0.0,1.0,27,0.00,,,0.00,Wunderground v.1.15,2013-10-06 15:25:00,
2013-10-06 08:30:00,55.0,22.4,30.36,ESE,112,0.0,0.0,28,0.00,,,0.00,Wunderground v.1.15,2013-10-06 15:30:00,
2013-10-06 08:40:00,55.7,22.2,30.36,NE,47,0.0,0.0,27,0.00,,,0.00,Wunderground v.1.15,2013-10-06 15:40:00,
2013-10-06 08:45:00,56.7,23.0,30.36,SE,144,0.0,0.0,27,0.00,,,0.00,Wunderground v.1.15,2013-10-06 15:45:00,
2013-10-06 08:55:00,58.3,23.5,30.36,SE,138,1.0,1.0,26,0.00,,,0.00,Wunderground v.1.15,2013-10-06 15:55:00,
2013-10-06 09:00:00,59.2,23.4,30.36,SE,131,1.0,1.0,25,0.00,,,0.00,Wunderground v.1.15,2013-10-06 16:00:00,
2013-10-06 09:10:00,61.1,24.0,30.36,ENE,71,0.0,0.0,24,0.00,,,0.00,Wunderground v.1.15,2013-10-06 16:10:00,
2013-10-06 09:15:00,61.1,24.0,30.36,North,356,1.0,1.0,24,0.00,,,0.00,Wunderground v.1.15,2013-10-06 16:15:00,
2013-10-06 09:25:00,62.1,25.8,30.36,ENE,68,1.0,1.0,25,0.00,,,0.00,Wunderground v.1.15,2013-10-06 16:25:00,
2013-10-06 09:30:00,62.2,23.9,30.36,NE,34,1.0,1.0,23,0.00,,,0.00,Wunderground v.1.15,2013-10-06 16:30:00,
2013-10-06 09:40:00,62.4,24.1,30.36,NNE,30,1.0,3.0,23,0.00,,,0.00,Wunderground v.1.15,2013-10-06 16:40:00,
2013-10-06 09:45:00,62.9,24.5,30.36,NE,37,1.0,3.0,23,0.00,,,0.00,Wunderground v.1.15,2013-10-06 16:45:00,
2013-10-06 09:55:00,63.5,25.0,30.35,East,94,1.0,3.0,23,0.00,,,0.00,Wunderground v.1.15,2013-10-06 16:55:00,
2013-10-06 10:00:00,64.1,23.3,30.35,NE,54,1.0,1.0,21,0.00,,,0.00,Wunderground v.1.15,2013-10-06 17:00:00,
2013-10-06 10:10:00,64.8,23.9,30.35,ENE,58,1.0,4.0,21,0.00,,,0.00,Wunderground v.1.15,2013-10-06 17:10:00,
2013-10-06 10:15:00,65.0,24.1,30.35,SE,142,1.0,4.0,21,0.00,,,0.00,Wunderground v.1.15,2013-10-06 17:15:00,
2013-10-06 10:25:00,65.4,20.7,30.35,ENE,63,1.0,3.0,18,0.00,,,0.00,Wunderground v.1.15,2013-10-06 17:25:00,
2013-10-06 10:30:00,65.5,22.1,30.34,SE,139,1.0,1.0,19,0.00,,,0.00,Wunderground v.1.15,2013-10-06 17:30:00,
2013-10-06 10:40:00,67.3,22.3,30.34,North,1,0.0,1.0,18,0.00,,,0.00,Wunderground v.1.15,2013-10-06 17:40:00,
2013-10-06 10:45:00,68.0,22.9,30.34,ENE,62,0.0,1.0,18,0.00,,,0.00,Wunderground v.1.15,2013-10-06 17:45:00,
2013-10-06 10:55:00,68.7,14.0,30.33,East,90,1.0,1.0,12,0.00,,,0.00,Wunderground v.1.15,2013-10-06 17:55:00,
2013-10-06 11:00:00,69.5,16.4,30.33,NNW,346,0.0,0.0,13,0.00,,,0.00,Wunderground v.1.15,2013-10-06 18:00:00,
2013-10-06 11:10:00,70.7,15.5,30.33,WSW,241,0.0,0.0,12,0.00,,,0.00,Wunderground v.1.15,2013-10-06 18:10:00,
2013-10-06 11:15:00,71.4,16.1,30.33,SE,146,0.0,0.0,12,0.00,,,0.00,Wunderground v.1.15,2013-10-06 18:15:00,
2013-10-06 11:25:00,71.5,19.8,30.32,North,9,1.0,1.0,14,0.00,,,0.00,Wunderground v.1.15,2013-10-06 18:25:00,
2013-10-06 11:30:00,71.4,14.1,30.32,NE,51,1.0,2.0,11,0.00,,,0.00,Wunderground v.1.15,2013-10-06 18:30:00,
2013-10-06 11:40:00,71.5,16.2,30.31,NE,49,1.0,1.0,12,0.00,,,0.00,Wunderground v.1.15,2013-10-06 18:40:00,
2013-10-06 11:45:00,72.6,17.0,30.31,NNW,330,1.0,1.0,12,0.00,,,0.00,Wunderground v.1.15,2013-10-06 18:45:00,
2013-10-06 11:55:00,72.4,16.9,30.30,North,1,1.0,3.0,12,0.00,,,0.00,Wunderground v.1.15,2013-10-06 18:55:00,
2013-10-06 12:00:00,72.9,17.3,30.30,ENE,61,2.0,2.0,12,0.00,,,0.00,Wunderground v.1.15,2013-10-06 19:00:00,
2013-10-06 12:10:00,73.7,15.9,30.30,SSE,168,1.0,1.0,11,0.00,,,0.00,Wunderground v.1.15,2013-10-06 19:10:00,
2013-10-06 12:15:00,74.4,16.4,30.29,East,94,2.0,6.0,11,0.00,,,0.00,Wunderground v.1.15,2013-10-06 19:15:00,
2013-10-06 12:25:00,74.8,16.7,30.29,SSW,192,2.0,2.0,11,0.00,,,0.00,Wunderground v.1.15,2013-10-06 19:25:00,
2013-10-06 12:30:00,74.8,16.7,30.28,ESE,106,1.0,1.0,11,0.00,,,0.00,Wunderground v.1.15,2013-10-06 19:30:00,
2013-10-06 12:40:00,75.3,17.1,30.28,SSW,210,1.0,1.0,11,0.00,,,0.00,Wunderground v.1.15,2013-10-06 19:40:00,
2013-10-06 12:45:00,76.0,17.6,30.27,SE,141,1.0,1.0,11,0.00,,,0.00,Wunderground v.1.15,2013-10-06 19:45:00,
2013-10-06 12:55:00,76.8,18.3,30.27,SSW,200,1.0,1.0,11,0.00,,,0.00,Wunderground v.1.15,2013-10-06 19:55:00,
2013-10-06 13:00:00,77.2,18.6,30.26,East,96,1.0,2.0,11,0.00,,,0.00,Wunderground v.1.15,2013-10-06 20:00:00,
2013-10-06 13:10:00,77.1,16.3,30.26,South,175,1.0,1.0,10,0.00,,,0.00,Wunderground v.1.15,2013-10-06 20:10:00,
2013-10-06 13:15:00,77.2,16.4,30.25,NNW,342,1.0,2.0,10,0.00,,,0.00,Wunderground v.1.15,2013-10-06 20:15:00,
2013-10-06 13:25:00,76.7,16.0,30.25,NW,311,2.0,2.0,10,0.00,,,0.00,Wunderground v.1.15,2013-10-06 20:25:00,
2013-10-06 13:30:00,76.8,13.6,30.25,SE,125,1.0,1.0,9,0.00,,,0.00,Wunderground v.1.15,2013-10-06 20:30:00,
2013-10-06 13:40:00,78.0,17.0,30.24,NNE,26,1.0,2.0,10,0.00,,,0.00,Wunderground v.1.15,2013-10-06 20:40:00,
2013-10-06 13:45:00,78.3,17.2,30.24,NNW,330,1.0,2.0,10,0.00,,,0.00,Wunderground v.1.15,2013-10-06 20:45:00,
2013-10-06 13:55:00,78.9,17.7,30.24,NNE,12,1.0,2.0,10,0.00,,,0.00,Wunderground v.1.15,2013-10-06 20:55:00,
2013-10-06 14:01:00,79.3,22.2,30.23,South,190,1.0,1.0,12,0.00,,,0.00,Wunderground v.1.15,2013-10-06 21:01:00,
2013-10-06 14:10:00,79.3,15.5,30.23,West,269,1.0,5.0,9,0.00,,,0.00,Wunderground v.1.15,2013-10-06 21:10:00,
2013-10-06 14:15:00,79.5,15.7,30.22,WSW,252,2.0,5.0,9,0.00,,,0.00,Wunderground v.1.15,2013-10-06 21:15:00,
2013-10-06 14:25:00,80.0,18.5,30.22,SE,136,1.0,2.0,10,0.00,,,0.00,Wunderground v.1.15,2013-10-06 21:25:00,
2013-10-06 14:30:00,80.5,13.7,30.22,NNE,30,1.0,1.0,8,0.00,,,0.00,Wunderground v.1.15,2013-10-06 21:30:00,
2013-10-06 14:40:00,80.8,14.0,30.22,SSE,154,1.0,2.0,8,0.00,,,0.00,Wunderground v.1.15,2013-10-06 21:40:00,
2013-10-06 14:45:00,80.6,16.5,30.22,SSE,150,2.0,3.0,9,0.00,,,0.00,Wunderground v.1.15,2013-10-06 21:45:00,
2013-10-06 14:55:00,80.5,13.7,30.21,West,271,2.0,2.0,8,0.00,,,0.00,Wunderground v.1.15,2013-10-06 21:55:00,
2013-10-06 15:00:00,80.3,18.7,30.21,South,179,1.0,2.0,10,0.00,,,0.00,Wunderground v.1.15,2013-10-06 22:00:00,
2013-10-06 15:10:00,81.6,17.3,30.21,SSW,211,2.0,2.0,9,0.00,,,0.00,Wunderground v.1.15,2013-10-06 22:10:00,
2013-10-06 15:15:00,81.9,17.5,30.21,SE,134,2.0,5.0,9,0.00,,,0.00,Wunderground v.1.15,2013-10-06 22:15:00,
2013-10-06 15:25:00,81.1,16.9,30.21,SE,130,2.0,3.0,9,0.00,,,0.00,Wunderground v.1.15,2013-10-06 22:25:00,
2013-10-06 15:30:00,81.3,19.5,30.20,SSW,200,1.0,1.0,10,0.00,,,0.00,Wunderground v.1.15,2013-10-06 22:30:00,
2013-10-06 15:40:00,81.1,19.3,30.20,NNE,25,1.0,1.0,10,0.00,,,0.00,Wunderground v.1.15,2013-10-06 22:40:00,
2013-10-06 15:45:00,81.4,21.8,30.20,North,6,0.0,1.0,11,0.00,,,0.00,Wunderground v.1.15,2013-10-06 22:45:00,
2013-10-06 15:55:00,81.9,17.5,30.19,SE,129,1.0,1.0,9,0.00,,,0.00,Wunderground v.1.15,2013-10-06 22:55:00,
2013-10-06 16:00:00,81.9,19.9,30.19,South,169,0.0,0.0,10,0.00,,,0.00,Wunderground v.1.15,2013-10-06 23:00:00,
2013-10-06 16:10:00,82.7,18.1,30.19,SSE,148,1.0,1.0,9,0.00,,,0.00,Wunderground v.1.15,2013-10-06 23:10:00,
2013-10-06 16:15:00,82.9,18.2,30.19,SE,139,1.0,2.0,9,0.00,,,0.00,Wunderground v.1.15,2013-10-06 23:15:00,
2013-10-06 16:25:00,82.8,18.2,30.19,South,183,1.0,3.0,9,0.00,,,0.00,Wunderground v.1.15,2013-10-06 23:25:00,
2013-10-06 16:30:00,82.7,18.1,30.19,ESE,111,1.0,1.0,9,0.00,,,0.00,Wunderground v.1.15,2013-10-06 23:30:00,
2013-10-06 16:40:00,82.3,20.3,30.19,WSW,256,1.0,1.0,10,0.00,,,0.00,Wunderground v.1.15,2013-10-06 23:40:00,
2013-10-06 16:45:00,82.6,20.5,30.19,WSW,239,1.0,1.0,10,0.00,,,0.00,Wunderground v.1.15,2013-10-06 23:45:00,
2013-10-06 16:55:00,82.1,20.1,30.19,WSW,257,1.0,1.0,10,0.00,,,0.00,Wunderground v.1.15,2013-10-06 23:55:00,
2013-10-06 17:00:00,81.4,21.8,30.19,WSW,237,1.0,1.0,11,0.00,,,0.00,Wunderground v.1.15,2013-10-07 00:00:00,
2013-10-06 17:10:00,81.0,23.6,30.19,West,279,1.0,1.0,12,0.00,,,0.00,Wunderground v.1.15,2013-10-07 00:10:00,
2013-10-06 17:15:00,79.4,24.2,30.19,West,280,1.0,1.0,13,0.00,,,0.00,Wunderground v.1.15,2013-10-07 00:15:00,
2013-10-06 17:25:00,73.9,23.3,30.18,WSW,254,3.0,3.0,15,0.00,,,0.00,Wunderground v.1.15,2013-10-07 00:25:00,
2013-10-06 17:30:00,72.4,22.1,30.18,WSW,250,2.0,4.0,15,0.00,,,0.00,Wunderground v.1.15,2013-10-07 00:30:00,
2013-10-06 17:40:00,70.9,20.9,30.18,WNW,289,2.0,2.0,15,0.00,,,0.00,Wunderground v.1.15,2013-10-07 00:40:00,
2013-10-06 17:45:00,69.2,21.1,30.18,WNW,302,2.0,3.0,16,0.00,,,0.00,Wunderground v.1.15,2013-10-07 00:45:00,
2013-10-06 17:55:00,67.8,19.9,30.18,WNW,289,3.0,4.0,16,0.00,,,0.00,Wunderground v.1.15,2013-10-07 00:55:00,
2013-10-06 18:00:00,67.3,19.5,30.19,WNW,298,3.0,3.0,16,0.00,,,0.00,Wunderground v.1.15,2013-10-07 01:00:00,
2013-10-06 18:10:00,66.8,17.6,30.19,West,279,3.0,3.0,15,0.00,,,0.00,Wunderground v.1.15,2013-10-07 01:10:00,
2013-10-06 18:15:00,67.1,17.8,30.19,West,266,3.0,5.0,15,0.00,,,0.00,Wunderground v.1.15,2013-10-07 01:15:00,
2013-10-06 18:25:00,66.9,16.1,30.19,WNW,293,3.0,3.0,14,0.00,,,0.00,Wunderground v.1.15,2013-10-07 01:25:00,
2013-10-06 18:30:00,66.7,15.9,30.18,WNW,296,3.0,3.0,14,0.00,,,0.00,Wunderground v.1.15,2013-10-07 01:30:00,
2013-10-06 18:40:00,66.2,15.5,30.18,West,280,3.0,3.0,14,0.00,,,0.00,Wunderground v.1.15,2013-10-07 01:40:00,
2013-10-06 18:45:00,66.1,15.5,30.19,WNW,298,3.0,3.0,14,0.00,,,0.00,Wunderground v.1.15,2013-10-07 01:45:00,
2013-10-06 18:55:00,65.2,14.7,30.19,West,281,3.0,3.0,14,0.00,,,0.00,Wunderground v.1.15,2013-10-07 01:55:00,
2013-10-06 19:00:00,64.8,16.0,30.19,NW,304,2.0,2.0,15,0.00,,,0.00,Wunderground v.1.15,2013-10-07 02:00:00,
2013-10-06 19:10:00,65.4,16.5,30.20,North,2,1.0,1.0,15,0.00,,,0.00,Wunderground v.1.15,2013-10-07 02:10:00,
2013-10-06 19:15:00,64.8,17.5,30.20,South,179,0.0,3.0,16,0.00,,,0.00,Wunderground v.1.15,2013-10-07 02:15:00,
2013-10-06 19:25:00,64.2,18.4,30.21,West,264,2.0,3.0,17,0.00,,,0.00,Wunderground v.1.15,2013-10-07 02:25:00,
2013-10-06 19:30:00,63.9,18.2,30.21,SW,215,1.0,1.0,17,0.00,,,0.00,Wunderground v.1.15,2013-10-07 02:30:00,
2013-10-06 20:30:00,61.8,19.0,30.22,West,274,3.0,3.0,19,0.00,,,0.00,Wunderground v.1.15,2013-10-07 03:30:00,
2013-10-06 20:40:00,61.6,20.1,30.22,WNW,287,2.0,4.0,20,0.00,,,0.00,Wunderground v.1.15,2013-10-07 03:40:00,
2013-10-06 20:45:00,61.8,19.0,30.22,West,263,2.0,4.0,19,0.00,,,0.00,Wunderground v.1.15,2013-10-07 03:45:00,
2013-10-06 20:55:00,62.7,19.8,30.22,WNW,289,3.0,3.0,19,0.00,,,0.00,Wunderground v.1.15,2013-10-07 03:55:00,
2013-10-06 21:00:00,62.4,19.5,30.22,West,278,2.0,2.0,19,0.00,,,0.00,Wunderground v.1.15,2013-10-07 04:00:00,
2013-10-06 21:05:00,61.7,19.0,30.22,West,262,1.0,2.0,19,0.00,,,0.00,Wunderground v.1.15,2013-10-07 04:05:00,
2013-10-06 21:10:00,61.1,18.5,30.22,SSW,213,0.0,0.0,19,0.00,,,0.00,Wunderground v.1.15,2013-10-07 04:10:00,
2013-10-06 21:15:00,60.5,19.2,30.22,SSW,213,0.0,0.0,20,0.00,,,0.00,Wunderground v.1.15,2013-10-07 04:15:00,
2013-10-06 21:25:00,60.5,18.0,30.22,West,276,1.0,1.0,19,0.00,,,0.00,Wunderground v.1.15,2013-10-07 04:25:00,
2013-10-06 21:30:00,61.3,17.4,30.22,WNW,283,1.0,2.0,18,0.00,,,0.00,Wunderground v.1.15,2013-10-07 04:30:00,
2013-10-06 21:35:00,61.4,17.5,30.22,WNW,289,2.0,2.0,18,0.00,,,0.00,Wunderground v.1.15,2013-10-07 04:35:00,
2013-10-06 21:45:00,61.6,17.6,30.22,West,262,2.0,5.0,18,0.00,,,0.00,Wunderground v.1.15,2013-10-07 04:45:00,
2013-10-06 21:55:00,62.0,16.6,30.22,West,262,2.0,3.0,17,0.00,,,0.00,Wunderground v.1.15,2013-10-07 04:55:00,